Location: Gälforsberget
(66.6500°N, 22.4167°E)
Time: 08:25:23
(UTC+00:00)

NOSS 3-1 (A) - Pass Details

Date: 11 April 2026
Orbit: 613 x 1593 km, 63.4° (Epoch: 10 January)

Event Time Altitude Azimuth Distance (km) Brightness Sun altitude
Rises 19:27:57 0° 268° (W) 3,291 7.0 -7.9°
Reaches altitude 10° 19:30:09 10° 265° (W) 2,470 6.2 -8.0°
Maximum altitude 19:35:50 67° 185° (S) 1,079 3.6 -8.4°
Drops below altitude 10° 19:43:11 10° 105° (ESE) 3,153 5.7 -8.9°
Enters shadow 19:45:18 - 103° (ESE) 3,911 6.1 -9.0°
